Zurück zum Katalog

STARLINK-6071

AktivKommunikationVLEO
NORAD 56132·PAYLOAD·🇺🇸 United States

Gestartet Mar 29, 2023 von Cape Canaveral Space Force Station

Loading…

Nächste Überflüge (nächste 24 Stunden)

TLE

AktuellSource: CelesTrak SupGP

Epoche: Sep 15, 2026, 02:51 UTC

1 56132C 23046AR  26258.11923611  .00042659  00000+0  15452-2 0  2581
2 56132  43.0025 156.8671 0001745 272.0472 128.5963 15.27555172    13

Verfolge STARLINK-6071 in Echtzeit mit AllMySat

Download on the App Store